Regional Weather Roundup
Issued by NWS

Home | Current Version | Previous Version | Text Only | Print | Product List | Glossary On
Versions: 1 2 3 4 5 6 7 8 9 10 11 12 13 14 15 16 17 18 19 20 21 22 23 24 25 26 27 28 29 30 31 32 33 34 35 36 37 38 39 40 41 42 43 44 45 46 47 48 49 50
000
ASCA42 TJSJ 231310
RWRPR
PUERTO RICO/U.S. VIRGIN ISLANDS HOURLY WEATHER ROUNDUP
NATIONAL WEATHER SERVICE SAN JUAN PR
900 AM AST SUN APR 23 2017

PRZ001>002-007>008-010-231400-
PUERTO RICO

CITY           SKY/WX    TMP DP  RH WIND       PRES   REMARKS
SAN JUAN LMM   PTSUNNY   82  72  69 E14       29.99S
AGUADILLA      SUNNY     79  64  61 E7        29.98S
CEIBA          SUNNY    N/A N/A N/A E14       30.03R
$$

VIZ001>002-231400-
U.S. VIRGIN ISLANDS

CITY           SKY/WX    TMP DP  RH WIND       PRES   REMARKS
CHARLOTTE AMA  SUNNY     81  66  61 SE17      29.99S
CHRISTIANSTED  MOSUNNY   82  73  74 E18       30.01R
$$

HOURLY WEATHER ROUNDUP FOR THE NEWS MEDIA

CITY           SKY/WX    TMP DP  RH WIND       PRES   REMARKS
ORLANDO        PTSUNNY   76  67  73 CALM      29.88F
NEW YORK       PTSUNNY   53  38  56 N12       30.14R
NEWARK         MOSUNNY   52  37  56 N13       30.13R
CHICAGO        MOSUNNY   50  28  42 W3        30.15R
HARTFORD       SUNNY     48  39  71 VRB5      30.07S
BOSTON         MOSUNNY   49  37  63 N8        30.09R
DALLAS         SUNNY     52  44  74 NW8       30.16R
PHILADELPHIA   MOSUNNY   51  37  58 NE10      30.14R
LOS ANGELES    MOCLDY    58  55  90 VRB6      29.83S
WASHINGTON DC  MOSUNNY   50  39  66 NE9       30.13R


USA.gov is the U.S. government's official web portal to all federal, state and local government web resources and services.